Weather Roundup
Issued by NWS Springfield, MO

Home | Current Version | Previous Version | Text Only | Print | Product List | Glossary On
Versions: 1 2 3 4 5 6 7 8 9 10 11 12 13 14 15 16 17 18 19 20 21 22 23 24 25 26 27 28 29 30 31 32 33 34 35 36 37 38 39 40 41 42 43 44 45 46 47 48 49 50
000
NZUS99 KSGF 060307
HRRSGF

HOURLY WEATHER
NATIONAL WEATHER SERVICE SPRINGFIELD MO
900 PM CST THU MAR 05 2015

......SGF CWA......

CITY           SKY/WX    TMP DP  RH WIND       PRES   REMARKS
SPRINGFIELD    CLEAR     20  13  74 SE3       30.51S
JOPLIN         CLEAR     28  14  55 SE7       30.51F WCI  21
WEST PLAINS    CLEAR     17   7  64 CALM      30.52S
ROLLA          CLEAR     19  14  81 CALM      30.51S
OSAGE BEACH    CLEAR     21  10  63 CALM      30.54S
BRANSON        CLEAR     18  10  73 CALM      30.53S

......SURROUNDING SGF CWA......

CITY           SKY/WX    TMP DP  RH WIND       PRES   REMARKS
CHANUTE        CLEAR     28  18  66 SE9       30.48S WCI  19
PARSONS        CLEAR     31  19  61 SE6       30.50S WCI  25
COFFEYVILLE    CLEAR     30  19  63 SE8       30.50S WCI  22
EMPORIA        CLEAR     25  18  74 SE8       30.44S WCI  16
GROVE OK       CLEAR     30  19  64 E3        30.54R
ROGERS AR      CLEAR     27  14  58 E3        30.52S
SILOAM SPRINGS CLEAR     28  12  50 E3        30.53R
HARRISON AR    CLEAR     24  10  55 CALM      30.52R
NEAR YELLVILLE CLEAR     23  12  63 CALM      30.55R

......KANSAS AND MISSOURI......

CITY           SKY/WX    TMP DP  RH WIND       PRES   REMARKS
KANSAS CTY INT CLEAR     22   7  52 SE8       30.47F WCI  12
DOWNTOWN KC    CLEAR     27  12  53 S7        30.49F WCI  19
COLUMBIA       CLEAR     21  11  65 E3        30.54R
SEDALIA        CLEAR     22  11  62 SE5       30.53F WCI  16
ST JOSEPH      CLEAR     24   7  48 SE6       30.47F WCI  17
ST LOUIS       CLEAR     19   5  54 NE7       30.59S WCI  10
SPIRIT OF STL  CLEAR     19   9  65 CALM      30.58F
KIRKSVILLE     CLEAR     16   9  74 SE8       30.52S WCI   5
WICHITA        PTCLDY    32  20  61 S9        30.43R WCI  24
TOPEKA         CLEAR     27  13  55 SE6       30.46F WCI  20
OLATHE         CLEAR     24  14  65 SE8       30.47F WCI  15

......TENNESSEE......

CITY           SKY/WX    TMP DP  RH WIND       PRES   REMARKS
MEMPHIS        PTCLDY    22  11  62 NE3       30.57R
NASHVILLE      MOCLDY    19   8  62 N8        30.54S WCI   9

......ARKANSAS.......

CITY           SKY/WX    TMP DP  RH WIND       PRES   REMARKS
FAYETTEVILLE   CLEAR     25  20  81 CALM      30.53R
FT SMITH       CLEAR     33  22  63 CALM      30.57R
LITTLE ROCK    CLEAR     26  18  71 CALM      30.59R

......OKLAHOMA.......

CITY           SKY/WX    TMP DP  RH WIND       PRES   REMARKS
TULSA          CLEAR     35  19  52 S10       30.52S WCI  27
PONCA CITY     CLEAR     34  16  47 S6        30.47F WCI  29
MCALESTER      CLEAR     31  19  61 CALM      30.57R
OKLAHOMA CITY  CLEAR     27  14  58 S8        30.51R WCI  19

......IOWA............

CITY           SKY/WX    TMP DP  RH WIND       PRES   REMARKS
DES MOINES     CLEAR     18   2  49 SE6       30.46F WCI  10
QUAD CITIES    MOCLDY     5  -3  69 CALM      30.56S

......ILLINOIS........

CITY           SKY/WX    TMP DP  RH WIND       PRES   REMARKS
QUINCY         PTCLDY    12   1  61 E6        30.55F WCI   3
CHICAGO        PTCLDY     9  -3  58 SW5       30.53S WCI   1




USA.gov is the U.S. government's official web portal to all federal, state and local government web resources and services.